Location: Luxembourg
(49.6117°N, 6.1300°E)
Time: 21:37:45
(UTC+02:00)

OTV 5 (USA 277) - Visible Passes

Search period start: 23 September 2018 00:00
Search period end: 03 October 2018 00:00
Orbit: 387 x 394 km, 54.5° (Epoch: 08 September)

Date Brightness Start Highest point End Pass type
(mag) Time Alt. Az. Time Alt. Az. Time Alt. Az.
27 Sep ? 06:12:18 10° SSE 06:13:27 12° SE 06:14:37 10° ESE visible
28 Sep ? 06:49:36 10° SSW 06:52:34 36° SE 06:55:34 10° ENE visible
29 Sep ? 05:54:17 11° S 05:56:25 19° SE 05:58:49 10° E visible
30 Sep ? 05:00:26 10° SE 05:00:26 10° SE 05:00:44 10° ESE visible
30 Sep ? 06:32:51 12° SW 06:35:41 61° SSE 06:38:51 10° ENE visible
01 Oct ? 05:38:54 30° SSE 05:39:27 32° SE 05:42:21 10° ENE visible
02 Oct ? 04:44:52 13° E 04:44:52 13° E 04:45:30 10° E visible
02 Oct ? 06:17:15 27° WSW 06:18:52 85° NNW 06:22:05 10° ENE visible
